Tracking 19832 objects as of 25-Aug-2019
HD Live streaming from Space Station
objects crossing your sky now

COSMOS 2251 DEB

Track COSMOS 2251 DEB now!
10-day predictions


NORAD ID: 33798
Int'l Code: 1993-036AP
Perigee: 691.4 km
Apogee: 826.1 km
Inclination: 74.0 °
Period: 99.9 minutes
Semi major axis: 7129 km
RCS: 0.048 m2 (small)
Launch date: June 16, 1993
Source: Commonwealth of Independent States (former USSR) (CIS)
Launch site: PLESETSK MISSILE AND SPACE COMPLEX (PKMTR)

Note: This is SATELLITE DEBRIS
aabbcc
Your satellite tracking list
Your tracking list is empty




NASA's NSSDC Master Catalog

Two Line Element Set (TLE):
1 33798U 93036AP  19236.94789192 +.00000026 +00000-0 +15598-4 0  9991
2 33798 074.0290 090.6924 0094439 055.4497 060.8625 14.42086909553965
Source of the keplerian elements: AFSPC